loading
DOY 171 | 2024-06-19T22:37:24Z

THOR AGENA B DEB, 510

Orbit data source: Space-Track

THOR AGENA B DEB, 510 is space debris in LEO originally from a launch on Sat, 29 Sep 1962 UTC launched from the Air Force Western Test Range (AFWTR). Debris objects in space refer to the collection of defunct objects orbiting the Earth. Examples of debris include non-operational satellites, rocket bodies, and fragments generated from explosions, collisions, or faulty payload assembly.

Loading next visibility...
Loading greatness...
THOR AGENA B DEB details
NORAD ID510
COSPAR ID
1962-049C
Orbit
LEO
Last TLE update13 hours ago
Origin
Flag of USDRTE (US)
ManufacturerUnknown
BusUnknown
MotorUnknown
MassWet unknown, Dry mass unknown
Launch date (UTC)
1962-09-29 (62 years ago)
Launch vehicleUnknown
Launch site
Air Force Western Test Range (AFWTR)
Object type
Payload
Rocket body
Debris
Radar Cross SectionSmall (<0.1 m²)
Predictive object data (real-time)
Latitude23.08273°
Longitude84.00935°
Altitude991.16 km
Speed7.364 km/s
Apparent Right ascension08h 24m 19s
Apparent Declination-31° 38' 04"
Sunlit
Object is in daylight
Predictive observer data (real-time)
Local Sidereal Time09:31:30
Azimuth194.888° SSW
Elevation16.775°
Doppler factor1
Orbital elements
Apogee1,008.899 km
Perigee985.403 km
Semi-major axis7,375.288 km
Eccentricity0.0015929
Inclination80.5143°
RAAN322.7183°
Arg. of periapsis171.2513°
True anomaly217.98615°
Mean anomaly218.0986°
Mean motion3.42669 °/min
BSTAR0.000085073
Period105.06 mins
Definitive object data (Epoch: 2024-06-19T09:44:01.283Z)
Latitude28.84589°
Longitude-86.14644°
Altitude1,012.634 km
Speed7.343 km/s
True Right ascension21h 51m 53s
True Declination28° 42' 21"
Sunlit
Object was in daylight at TLE epoch
TLE from 13 hours ago
0 THOR AGENA B DEB
1 00510U 62049C   24171.40557041  .00000084  00000-0  85073-4 0  9997
2 00510  80.5143 322.7183 0015929 171.2513 218.0986 13.69911873 83015
Epoch: 2024-06-19T09:44Z
No data available
Other satellites on launch #49 in the year 1962 (1962-09-29 UTC)

THOR AGENA B DEB Visibility forecast

Observer location: 39.9160978°, -105.1181434, 0m alt.

THOR AGENA B DEB is not visible in the next 10 days
Span
Click to sort rows by Start time (UTC) header in descending order
Start Az.
Max El. time (UTC)
Max El. Az.
Max El.
End time (UTC)
End Az.